[[{"header":{"parameterUnit":"m.s-1","parameterCategory":1,"la1":30.2992,"la2":30.254,"lo1":-89.0895,"lo2":-89.0443,"dy":0.0025,"dx":0.0025,"nx":19,"ny":19,"refTime":"2026-04-10T03:00:00:Z","depth":0,"parameterNumber":2,"parameterNumberName":"U-component_of_WINDS"},"data":[0,0,0,-1.511,-1.5111,-1.5157,-1.5157,-1.5224,-1.5225,0,0,0,0,0,0,0,0,0,0,0,-1.5103,-1.5103,-1.511,-1.5111,-1.5157,-1.5157,-1.5224,-1.5225,0,0,0,0,0,0,0,0,0,0,0,-1.5102,-1.5103,-1.5104,-1.5111,-1.5157,-1.5157,-1.5224,-1.5187,0,0,0,0,0,0,0,0,0,0,-1.5141,-1.514,-1.5103,-1.5104,-1.5112,-1.5156,-1.5157,-1.5185,-1.5189,-1.5208,0,-1.5227,0,-1.5227,-1.523,-1.5231,0,0,0,-1.5107,-1.5136,-1.5143,-1.5104,-1.5112,-1.5156,-1.5135,-1.5187,-1.5192,-1.5214,-1.5228,-1.523,-1.5228,-1.5231,-1.5231,-1.5356,-1.5357,0,0,-1.5104,-1.5114,-1.514,-1.5146,-1.514,-1.5133,-1.5136,-1.519,-1.5205,-1.5228,-1.5231,-1.5229,-1.5231,-1.5232,-1.5356,-1.5357,0,0,0,-1.51,-1.5113,-1.5118,-1.5144,-1.5151,-1.5135,-1.5138,-1.5203,-1.5204,-1.5232,-1.523,-1.5232,-1.5233,-1.5355,-1.5356,-1.5404,0,0,0,-1.5098,-1.511,-1.5117,-1.5123,-1.5151,-1.5178,-1.5151,-1.52,-1.5206,-1.523,-1.5232,-1.5233,-1.5354,-1.5355,-1.5401,-1.5426,0,0,0,-1.5098,-1.511,-1.5118,-1.5124,-1.5143,-1.5177,-1.518,-1.5201,-1.5205,-1.5231,-1.5234,-1.5353,-1.5355,-1.5398,-1.5421,-1.5461,0,0,0,-1.51,-1.5161,-1.5119,-1.5187,-1.5143,-1.5206,-1.518,-1.5226,-1.5254,-1.5232,-1.5354,-1.5356,-1.5397,-1.5418,-1.5458,-1.5498,-1.5515,0,0,-1.5182,-1.5171,-1.521,-1.5174,-1.5247,-1.5198,-1.5278,-1.5295,-1.5288,-1.5334,-1.5337,-1.5402,-1.5421,-1.5461,-1.5606,-1.562,0,0,0,-1.524,-1.5268,-1.5285,-1.5312,-1.5326,-1.534,-1.5343,-1.5349,-1.5387,-1.5314,-1.5427,-1.5438,-1.5461,-1.5479,-1.5491,-1.551,-1.5365,-1.5364,-1.5364,-1.5371,-1.536,-1.5423,-1.5417,-1.5443,-1.5445,-1.5466,-1.5474,-1.5455,-1.5482,-1.5496,-1.5585,-1.5607,-1.5616,-1.5636,-1.5515,-1.5515,-1.5515,-1.5515,-1.5492,-1.553,-1.5502,-1.5554,-1.5541,-1.5585,-1.5589,-1.5574,-1.5613,-1.5574,-1.5594,-1.5553,-1.5631,-1.5648,-1.5519,-1.5518,-1.5518,-1.5518,-1.5517,-1.5577,-1.5593,-1.5599,-1.5636,-1.5666,-1.5657,-1.5695,-1.5682,-1.567,-1.569,-1.5703,-1.5702,-1.57,-1.5697,-1.5697,-1.5698,-1.5698,-1.5698,-1.5698,-1.5663,-1.5668,-1.5702,-1.5721,-1.5736,-1.5755,-1.5757,-1.5771,-1.5784,-1.5772,-1.5772,-1.575,-1.5641,-1.5614,-1.5703,-1.5702,-1.5702,-1.5701,-1.5701,-1.5791,-1.5759,-1.5812,-1.5827,-1.5848,-1.5878,-1.5861,-1.5892,-1.5902,-1.5921,-1.5895,-1.5816,-1.5804,-1.5794,-1.5772,-1.5897,-1.5897,-1.5897,-1.5897,-1.5863,-1.5855,-1.5905,-1.593,-1.5953,-1.5942,-1.6002,-1.6004,-1.6001,-1.6007,-1.5987,-1.5956,-1.5947,-1.594,-1.5927,-1.5906,-1.6063,-1.6063,-1.6063,-1.5941,-1.5934,-1.5987,-1.5984,-1.5999,-1.6013,-1.6068,-1.6098,-1.6089,-1.6069,-1.6011,-1.6004,-1.5954,-1.5938,-1.5918,-1.5899,-1.586,0,0]},{"header":{"parameterUnit":"m.s-1","parameterCategory":1,"la1":30.2992,"la2":30.254,"lo1":-89.0895,"lo2":-89.0443,"dy":0.0025,"dx":0.0025,"nx":19,"ny":19,"refTime":"2026-04-10T03:00:00:Z","depth":0,"parameterNumber":3,"parameterNumberName":"V-component_of_WINDS"},"data":[0,0,0,0.2064,0.2063,0.2008,0.2008,0.1948,0.1948,0,0,0,0,0,0,0,0,0,0,0,0.209,0.2089,0.2064,0.2063,0.2008,0.2008,0.1949,0.1948,0,0,0,0,0,0,0,0,0,0,0,0.209,0.2089,0.2089,0.2063,0.2008,0.2008,0.1949,0.1986,0,0,0,0,0,0,0,0,0,0,0.2037,0.207,0.209,0.2089,0.2063,0.2009,0.2008,0.1987,0.1983,0.1979,0,0.198,0,0.1963,0.1945,0.1945,0,0,0,0.2055,0.2073,0.205,0.2089,0.2062,0.2009,0.2031,0.1985,0.198,0.1974,0.1979,0.1976,0.1962,0.1945,0.1945,0.1951,0.1951,0,0,0.2058,0.2084,0.2054,0.2048,0.206,0.2033,0.2029,0.1982,0.1988,0.1978,0.1974,0.1961,0.1944,0.1944,0.1951,0.1951,0,0,0,0.2072,0.2086,0.2064,0.2051,0.2041,0.2031,0.2027,0.199,0.1981,0.1974,0.1961,0.1944,0.1944,0.195,0.1951,0.1996,0,0,0,0.2074,0.2094,0.2066,0.2081,0.2042,0.2015,0.2037,0.1984,0.1978,0.1961,0.1944,0.1943,0.195,0.1951,0.1994,0.2012,0,0,0,0.209,0.2096,0.2092,0.2083,0.206,0.2015,0.2003,0.1982,0.197,0.1945,0.1943,0.1949,0.195,0.1992,0.2009,0.2022,0,0,0,0.2114,0.2131,0.2093,0.2107,0.2061,0.2045,0.2003,0.1989,0.1973,0.1944,0.195,0.1951,0.1991,0.2007,0.202,0.2037,0.2047,0,0,0.215,0.2136,0.2143,0.2107,0.2105,0.2051,0.2054,0.2013,0.1986,0.1963,0.1963,0.1995,0.2009,0.2021,0.2094,0.2102,0,0,0,0.2162,0.2167,0.2161,0.2148,0.212,0.2096,0.2052,0.2037,0.2018,0.1981,0.2002,0.201,0.2016,0.2023,0.2029,0.2033,0.1955,0.1955,0.1955,0.2249,0.2216,0.2224,0.2184,0.2172,0.2128,0.2114,0.2085,0.2053,0.2059,0.2052,0.21,0.2109,0.2114,0.2118,0.2059,0.2059,0.2059,0.2059,0.2298,0.2299,0.2259,0.2252,0.2216,0.2209,0.2167,0.2145,0.2131,0.2103,0.2106,0.2077,0.2124,0.2126,0.2062,0.2062,0.2061,0.2061,0.2061,0.235,0.2345,0.2329,0.2307,0.2293,0.2251,0.2242,0.2208,0.2176,0.218,0.2169,0.2168,0.2162,0.2177,0.2178,0.2178,0.2178,0.2178,0.2178,0.2411,0.2391,0.2388,0.236,0.2348,0.2327,0.2283,0.2269,0.2245,0.2221,0.222,0.2188,0.2136,0.2123,0.2181,0.218,0.218,0.218,0.2179,0.2473,0.2454,0.245,0.2438,0.2402,0.239,0.2349,0.2323,0.2306,0.2302,0.2269,0.2236,0.2219,0.2213,0.2203,0.2277,0.2277,0.2277,0.2277,0.2517,0.2506,0.2494,0.2477,0.2456,0.2418,0.2412,0.2378,0.2339,0.2327,0.2311,0.2294,0.229,0.2275,0.2268,0.2258,0.2344,0.2344,0.2344,0.2552,0.2538,0.254,0.2505,0.2475,0.2449,0.2442,0.2422,0.2374,0.2346,0.2316,0.2313,0.2285,0.2278,0.2249,0.2239,0.2219,0,0]}]]